Regional Weather Roundup
Issued by NWS Wakefield, VA

Home | Current Version | Previous Version | Text Only | Print | Product List | Glossary Off
Versions: 1 2 3 4 5 6 7 8 9 10 11 12 13 14 15 16 17 18 19 20 21 22 23 24 25 26 27 28 29 30 31 32 33 34 35 36 37 38 39 40 41 42 43 44 45 46 47 48 49 50

000
ASUS41 KAKQ 262110
RWRAKQ

REGIONAL WEATHER ROUNDUP
NATIONAL WEATHER SERVICE WAKEFIELD VA
400 PM EST FRI DEC 26 2014

Note: "fair" indicates few or no clouds below 12,000 feet with no
significant weather and/or obstructions to visibility. * = Denotes
station may not report precipitation (e.g., rain,snow,etc.),
thunder or fog.

VAZ042-051-052>054-056-262200-
NORTHERN VIRGINIA

CITY           SKY/WX    TMP DP  RH WIND       PRES   REMARKS
WASH NATIONAL  PTCLDY    50  33  52 S9        30.26S
DULLES         PTCLDY    49  30  48 SW7       30.24S
FORT BELVOIR   CLEAR     51  31  47 VRB3      30.26S
QUANTICO       CLEAR     48  34  58 SW5       30.27S
FREDERICKSBRG* CLEAR     55  32  42 S5        30.25S
STAFFORD*      CLEAR     52  31  44 CALM      30.29S
WARRENTON      CLEAR     53  37  54 SW5       30.25R
CULPEPER*      CLEAR     54  32  43 SW5       30.26R
MANASSAS*      CLEAR     52  32  46 CALM      30.25S
LEESBURG*      CLEAR     52  36  54 S6        30.25S
WINCHESTER     CLEAR     50  25  37 SE3       30.22S
FRONT ROYAL*   CLEAR     52  32  46 CALM      30.21R
LURAY*         CLEAR     55  32  41 CALM      30.21S
$$

VAZ048-049-060>072-079>083-262200-
CENTRAL AND SOUTH CENTRAL VIRGINIA

CITY           SKY/WX    TMP DP  RH WIND       PRES   REMARKS
RICHMOND       PTCLDY    56  32  40 CALM      30.26S
CHESTERFIELD*  CLEAR     55  28  35 W5        30.27S
PETERSBURG*    CLEAR     58  29  33 W6        30.27R
HANOVER        CLEAR     54  32  43 CALM      30.27S
TAPPAHANNOCK*  CLEAR     54  29  39 CALM      30.27S
QUINTON*       CLEAR     54  32  44 CALM      30.27R
CHARLOTTSVILLE CLEAR     51  31  46 S5        30.24S
GORDONSVILLE*  CLEAR     51  32  47 CALM      30.25S
ORANGE*        CLEAR     52  32  46 S3        30.27R
LOUISA*        CLEAR     54  32  43 CALM      30.24S
BUMPASS*       CLEAR     53  31  43 CALM      30.25S
FARMVILLE*     CLEAR     61  32  33 S3        30.24S
CREWE*         CLEAR     56  30  37 S6        30.25F
FORT PICKETT*  CLEAR     55  32  41 CALM      30.26S
CHASE CITY*    CLEAR     58  35  43 W3        30.26S
CLARKSVILLE*   CLEAR     55  34  44 W6        30.25F
SOUTH HILL*    CLEAR     55  35  47 S5        30.32S
LAWRENCEVILLE* CLEAR     55  35  46 SW7       30.27R
EMPORIA*       CLEAR     54  34  47 S6        30.29R
$$

VAZ088>098-262200-
SOUTHEAST VIRGINIA

CITY           SKY/WX    TMP DP  RH WIND       PRES   REMARKS
NORFOLK        CLEAR     50  42  74 NE6       30.27S
VIRGINIA BEACH PTCLDY    51  42  71 E6        30.27R
NORFOLK NAVAL  PTCLDY    53  41  63 E7        30.28S
WEST POINT*    CLEAR     56  34  43 S3        30.29R
SALUDA*        FAIR      47  33  59 E6        30.27S
NEWPORT NEWS   CLEAR     54  41  61 NE6       30.27S
LANGLEY AFB    CLEAR     50  40  69 E6        30.27S
FORT EUSTIS    CLEAR     53  53  99 W3        30.26R
WILLIAMSBURG*  CLEAR     57  39  51 CALM      30.28R
HR EXEC AP*    CLEAR     55  34  44 W5        30.29R
FRANKLIN*      CLEAR     55  34  44 W6        30.28R
WAKEFIELD      CLEAR     56  34  43 SW5       30.27S
$$

VAZ020-022-025-037-045-262200-
WEST CENTRAL AND SOUTHWEST VIRGINIA

CITY           SKY/WX    TMP DP  RH WIND       PRES   REMARKS
STAUNTON*      CLEAR     55  26  32 S7        30.23S
WAYNESBORO*    CLEAR     54  21  28 SW7       30.22S
HOT SPRINGS VA CLEAR     44  22  43 W9        30.20R
LYNCHBURG      CLEAR     56  26  31 S7        30.26R
DANVILLE       SUNNY     59  33  37 S7        30.27R
SOUTH BOSTON*  CLEAR     57  31  36 SW3       30.27R
MARTINSVILLE   SUNNY     60  31  33 S3        30.28R
ROANOKE        MOSUNNY   58  22  24 CALM      30.26R
BLACKSBURG     MOSUNNY   53  22  29 CALM      30.28R
DUBLIN*        MOSUNNY   56  22  27 CALM      30.26R
MARION*        MOSUNNY   53  16  23 W9        30.28R
HILLSVILLE*    SUNNY     52  26  35 S5        30.25R
RICHLANDS*     MOCLDY    50  20  29 SW3       30.25S
WISE*          MOSUNNY   52  21  30 SW7       30.27R
ABINGDON*      MOSUNNY   56  19  23 W6        30.27R
$$

MDZ021>025-VAZ099-100-262200-
SOUTHERN MARYLAND AND THE DELMARVA PENINSULA

CITY           SKY/WX    TMP DP  RH WIND       PRES   REMARKS
PATUXENT RIVER PTCLDY    45  32  60 SE7       30.27S
BAY BRIDGE APT   N/A     48  32  53 S7        30.25S
LEONARDTOWN    CLEAR     50  32  50 W6        30.28R
DOVER          CLEAR     49  30  47 W7        30.23S
GEORGETOWN     CLEAR     51  32  48 SW6       30.26S
EASTON         CLEAR     50  36  57 SW8       30.29S
CAMBRIDGE      CLEAR     52  32  46 SW3       30.26S
SALISBURY      CLEAR     52  32  46 SW9       30.26S
OCEAN CITY     CLEAR     47  38  71 S6        30.26S
WALLOPS ISLAND CLEAR     50  32  50 W5        30.28S
ACCOMACK*      CLEAR     48  34  57 NW3       30.28S
$$

NCZ012>017-030>032-262200-
NORTH CENTRAL AND EASTERN NORTH CAROLINA

CITY           SKY/WX    TMP DP  RH WIND       PRES   REMARKS
ROANOKE RAPIDS CLEAR     55  34  44 SW6       30.27S
RALEIGH        MOSUNNY   58  35  42 SW8       30.29R
ELIZABETH CITY CLEAR     58  36  43 W5        30.28R
AHOSKIE*       CLEAR     54  36  50 CALM      30.29R
EDENTON*       CLEAR     56  36  46 W3        30.28S
CURRITUCK*     CLEAR     56  32  39 W3        30.28R
KILL DEVIL HLS CLEAR     53  35  50 W5        30.27S
MANTEO         CLEAR     52  36  54 NW3       30.29R
CAPE HATTERAS  CLEAR     54  39  57 NW7       30.28S
TARBORO*       CLEAR     58  34  40 CALM      30.29S
GOLDSBORO      SUNNY     58  38  47 W3        30.26S
WASHINGTON     CLEAR     57  34  42 CALM      30.29R
GREENVILLE     CLEAR     57  34  41 W3        30.29S
NEW BERN       CLEAR     59  37  44 NE3       30.29S
WILMINGTON     SUNNY     61  39  44 W3        30.28R
$$

VAZ048-262200-
ELSEWHERE

CITY           SKY/WX    TMP DP  RH WIND       PRES   REMARKS
HARRISBURG PA  PTCLDY    46  32  58 CALM      30.22R
BALTIMORE      PTCLDY    52  29  41 W7        30.23S
ANNAPOLIS      CLEAR     47  33  58 S7        30.25S
ANDREWS AFB    CLEAR     50  31  49 SW7       30.24S
PHILADELPHIA   PTCLDY    49  31  49 W9        30.24R
HENDERSON NC   SUNNY     57  30  35 SW5       30.27S
GREENSBORO     MOSUNNY   56  33  42 SW6       30.27R
ROCKY MOUNT    SUNNY     58  34  40 CALM      30.28S
$$

VAZ100-262200-
MARINE

STATION/POSITION TIME  TEMP    WIND        PRES    WAVE   SWELL
                       AIR SEA DIR/SP/G            HT/PER HT/PER
                 (UTC) (F)     (DEG/KT/KT) (MB)    (FT/S) (FT/S)
CAPE MAY NJ      2100   45 46              1023.9F
LEWES DE         2100   51 44              1024.1F
15NM E FENWICK I 2100   46 46              1024.6R   2/ 8
OCEAN-CITY-INLET 2100   46 45              1024.3F
WACHAPREAGUE VA  2100   49 48              1025.2S
THOMAS POINT MD  2100   44 43  180/ 11/ 11 1025.6R
GOOSES REEF MD   2100   45     VRB 10/ 12  1023.7F
COVE POINT MD    2100   44                 1024.8S
SOLOMONS ISLAND  2100      44                N/A
BISHOPS HEAD MD  2100   46 46              1024.7R
PINEY POINT MD   2000          170/  6/  7   N/A
POTOMAC MD       2100   45     140/  6/  6 1024.3S
CAMBRIDGE MD     2100   50 43              1024.5S
LEWISETTA VA     2100   45 45              1024.7S
RAPPAHANNOCK LGT 2100                      1025.7S
STINGRAY PT      2100   46      90/  4/  6 1025.7S
YORK RVR RNG VA  2100   47                 1024.5F
YORKTOWN VA      2100   48 46              1024.8S
JAMESTOWN VA     2100   52     160/  4/  6   N/A
DOMINION TERM VA 2100   47                 1025.1S
KIPTOPEKE VA     2100      51                N/A
CHES BAY BRIDGE  2100   47 45              1024.8R
CAPE HENRY VA    2100   48                 1024.0R
CHESAPEAKE LGHT  2000   49      90/  5/  6 1025.7F
WILLOUBY STN VA  2100   47                 1025.6R
S CRANEY ISL VA  2100                      1024.9R
CAPE HENRY BUOY  2100      49                N/A     2/14
1ST LANDING BUOY 2100   48      70/  6/  8 1024.9R
CAPE CHARLES BUO 2100      48                N/A     1/15   2/15
64NM E OF VA BCH 2100   51 52   10/  2/  4 1024.9F   3/ 7   2/ 7
DUCK PIER NC     2100   53 51              1024.4R
44100 DUCK FRF   2100      51                N/A     2/ 8   2/13
44056 DUCK FRF   2100      50                N/A     2/13   2/13
OREGON INLET NC  2100   54 53              1025.3S
HATTERAS NC      2100   53 56              1025.7S
DIAMOND SHLS NC  2100   57                 1025.6R   3/ 9
CAPE LOOKOUT NC  2100   56      50/  3/  4 1025.1F
$$



USA.gov is the U.S. government's official web portal to all federal, state and local government web resources and services.